Home   Weather   Sabha   Past weeks

Flag for Libya Past Weather in Sabha, Libya — Yesterday and Last 2 Weeks

Now
72 °F

Sunny.


Feels Like: 77 °F
Forecast: 72 / 96 °F
Wind: 8 mph from East

Location: In Amenas

Current Time: Sep 25, 2016 at 7:35:44 AM

Latest Report: Sep 25, 2016 at 7:00 AM


Visibility: 10 mi

Pressure: 30.01 "Hg

Humidity: 41%

Dew Point: 46 °F

Location of SabhaLocation

Past Weather in Sabha — Graph

°F

Sabha Temperature Yesterday

Maximum temperature yesterday: 97 °F (at 4:00 PM)
Minimum temperature yesterday: 73 °F (at 7:00 AM)
Average temperature yesterday: 85 °F

High & Low Weather Summary for the Past Weeks

 TemperatureHumidityPressure
High108 °F (Sep 14, 5:00 PM)65% (Sep 20, 7:00 AM)30.15 "Hg (Sep 20, 7:00 AM)
Low70 °F (Sep 11, 7:00 AM)8% (Sep 14, 5:00 PM)29.83 "Hg (Sep 19, 6:00 PM)
Average90 °F19%29.99 "Hg
* Reported Sep 10 6:00 AM — Sep 25 6:00 AM, Sabha, Weather by CustomWeather, © 2016

Note: Actual official high and low records may vary slightly from our data, if they occured in-between our weather recording intervals... More about our weather records

Advertising

Sabha Weather History for the Previous 24 Hours

Scroll right to see more
 ConditionsComfort  
Time TempWeatherWind HumidityBarometerVisibility
6:00 AM
Sun, Sep 25
72 °FClear.12 mph38%30.01 "Hg10 mi
5:00 AM72 °FClear.12 mph33%30.01 "Hg10 mi
4:00 AM73 °FClear.9 mph29%30.01 "Hg10 mi
3:00 AM73 °FClear.9 mph25%30.04 "Hg10 mi
2:00 AM75 °FClear.10 mph25%30.04 "Hg10 mi
1:00 AM75 °FClear.7 mph24%30.07 "Hg10 mi
12:00 AM79 °FClear.8 mph23%30.07 "Hg10 mi
11:00 PM
Sat, Sep 24
81 °FClear.8 mph20%30.07 "Hg10 mi
10:00 PM84 °FClear.8 mph18%30.07 "Hg10 mi
9:00 PM86 °FClear.8 mph18%30.07 "Hg10 mi
8:00 PM90 °FClear.8 mph16%30.04 "Hg10 mi
7:00 PM93 °FClear.9 mph14%30.04 "Hg10 mi
6:00 PM95 °FPassing clouds.9 mph13%30.04 "HgN/A
5:00 PM97 °FPassing clouds.12 mph12%30.04 "HgN/A
4:00 PM97 °FPassing clouds.9 mph13%30.04 "HgN/A
3:00 PM95 °FPassing clouds.12 mph14%30.07 "HgN/A
2:00 PM95 °FPassing clouds.12 mph16%30.09 "HgN/A
1:00 PM93 °FSunny.14 mph20%30.12 "Hg10 mi
12:00 PM90 °FPassing clouds.14 mph29%30.15 "HgN/A
11:00 AM86 °FSunny.15 mph33%30.15 "Hg10 mi
10:00 AM81 °FClear.16 mph39%30.15 "Hg5 mi
9:00 AM77 °FClear.18 mph47%30.12 "Hg5 mi
8:00 AM73 °FSunny.13 mph53%30.12 "Hg10 mi
7:00 AM73 °FSunny.14 mph53%30.09 "Hg10 mi
Weather by CustomWeather, © 2016

See weather overviewHow to use our weather pages